Location: Amsterdam
(30.7274°N, 84.4357°W)
Time: 18:57:09
(UTC+00:00)

Injun/Solrad 3 - All Passes

Search period start: 18 February 2026 00:00
Search period end: 28 February 2026 00:00
Orbit: 873 x 983 km, 66.8° (Epoch: 18 February)

Date Brightness Start Highest point End Pass type
(mag) Time Alt. Az. Time Alt. Az. Time Alt. Az.
18 Feb - 01:07:41 10° N 01:12:30 23° NE 01:17:22 10° ESE visible
18 Feb - 02:53:10 10° NW 02:59:10 50° WSW 03:05:18 10° S visible
18 Feb - 16:09:04 10° SSW 16:14:52 85° ESE 16:20:46 10° NNE daylight
18 Feb - 17:59:39 10° WNW 18:02:03 12° NW 18:04:27 10° NNW daylight
19 Feb - 01:18:05 10° N 01:23:45 35° ENE 01:29:28 10° SE visible
19 Feb - 03:04:40 10° NW 03:10:04 31° WSW 03:15:32 10° SSW visible
19 Feb - 14:36:58 10° SE 14:40:04 15° ESE 14:43:10 10° ENE daylight
19 Feb - 16:20:11 10° SW 16:25:54 59° WNW 16:31:42 10° NNE daylight
20 Feb - 01:28:46 10° NNW 01:34:53 55° ENE 01:41:06 10° SE visible
20 Feb - 03:16:41 10° WNW 03:20:53 19° WSW 03:25:07 10° SSW visible
20 Feb - 14:46:10 10° SSE 14:50:50 26° ESE 14:55:32 10° NE daylight
20 Feb - 16:31:42 10° SW 16:37:01 36° WNW 16:42:25 10° N daylight
20 Feb - 23:56:06 10° NNE 23:58:42 13° NE 00:01:19 10° ENE visible
21 Feb - 01:39:40 10° NNW 01:45:56 87° ENE 01:52:20 10° SSE visible
21 Feb - 03:30:36 10° W 03:31:38 10° WSW 03:32:39 10° WSW visible
21 Feb - 14:56:13 10° S 15:01:40 43° ESE 15:07:10 10° NE daylight
21 Feb - 16:43:43 10° WSW 16:48:15 23° NW 16:52:51 10° N daylight
22 Feb - 00:05:40 10° N 00:10:07 20° NE 00:14:36 10° E visible
22 Feb - 01:50:47 10° NNW 01:56:56 59° WSW 02:03:10 10° S visible
22 Feb - 15:06:48 10° SSW 15:12:35 72° ESE 15:18:26 10° NNE daylight
22 Feb - 16:56:27 10° W 16:59:36 15° NW 17:02:46 10° NNW daylight
23 Feb - 00:15:57 10° N 00:21:23 31° ENE 00:26:54 10° ESE visible
23 Feb - 02:02:11 10° NW 02:07:49 36° WSW 02:13:34 10° S visible
23 Feb - 13:35:43 10° SE 13:37:51 12° ESE 13:40:00 10° E daylight
23 Feb - 15:17:47 10° SSW 15:23:35 70° WNW 15:29:27 10° NNE daylight
24 Feb - 00:26:34 10° NNW 00:32:34 48° ENE 00:38:41 10° SE visible
24 Feb - 02:13:59 10° WNW 02:18:40 22° WSW 02:23:25 10° SSW visible
24 Feb - 13:44:19 10° SSE 13:48:36 22° ESE 13:52:55 10° ENE daylight
24 Feb - 15:29:11 10° SW 15:34:40 42° WNW 15:40:15 10° N daylight
24 Feb - 22:54:49 10° NE 22:56:15 11° NE 22:57:41 10° ENE daylight
25 Feb - 00:37:23 10° NNW 00:43:39 76° ENE 00:50:02 10° SSE visible
25 Feb - 02:26:45 10° WNW 02:29:26 13° WSW 02:32:07 10° SW visible
25 Feb - 13:54:10 10° S 13:59:25 36° ESE 14:04:43 10° NE daylight
25 Feb - 15:41:01 10° WSW 15:45:51 27° WNW 15:50:47 10° N daylight
25 Feb - 23:03:42 10° NNE 23:07:42 17° NE 23:11:44 10° E daylight
26 Feb - 00:48:25 10° NNW 00:54:39 69° WSW 01:00:59 10° SSE visible
26 Feb - 14:04:35 10° S 14:10:18 61° ESE 14:16:05 10° NNE daylight
26 Feb - 15:53:27 10° W 15:57:10 17° NW 16:00:55 10° NNW daylight
26 Feb - 23:13:50 10° N 23:19:01 27° ENE 23:24:16 10° ESE daylight
27 Feb - 00:59:43 10° NW 01:05:35 43° WSW 01:11:32 10° S visible
27 Feb - 14:15:27 10° SSW 14:21:16 82° WNW 14:27:11 10° NNE daylight
27 Feb - 16:07:31 10° WNW 16:08:36 10° NW 16:09:42 10° NW daylight
27 Feb - 23:24:21 10° N 23:30:14 41° ENE 23:36:12 10° SE daylight
